Showing default

COSMOS 2169, 21783

Orbit data source: Space-Track

COSMOS 2169, 21783 is a payload satellite owned by UNKS RF (CIS) in LEO that was launched on Tue, 12 Nov 1991 UTC via a TSIKLON-3 launch vehicle from the Plesetsk Missile And Space Complex (PKMTR). Payload-class satellites include a variety of spacecraft equipped with specific instruments for various scientific and technological missions. These include communications satellites like Starlink; space stations such as the ISS; scientific satellites like the Hubble; Earth observation satellites from companies like Planet Labs, Umbra, and HawkEye 360; GPS; miniature CubeSats for education and research; and military/defense satellites.

Loading next visibility...
Identifier
21783, 1991-077E
Orbit
LEO
Country
Flag of CISCIS
Related business
Manufacturer
NPO PM
Mission
Defense Communications
Bus & Motor
STRELA-3, Unknown motor
Mass
225 kg wet, 225 kg dry
Launch date (UTC)
1991-11-12 (34 years ago)
Launch vehicle
TSIKLON-3
Launch site
Plesetsk Missile And Space Complex (PKMTR)
Object type
Payload
Rocket body
Debris
Shape & HBR
Cyl, 0.8 m
Radar Cross Section
1.257 m², Medium (>0.1 m² and < 1m²)

Expand to show TLE details & history
Last TLE update: 8 hours ago

TLE from 8 hours ago
0 COSMOS 2169
1 21783U 91077E   26126.25278636  .00000038  00000-0  14215-3 0  9998
2 21783  82.6043 235.3319 0018668  69.2083 291.1008 12.66314295593488
Epoch: 2026-05-06T06:04Z
TLE epoch observation values (Epoch: 2026-05-06T06:04:00.741Z)
Latitude
-0.00005°
Longitude
-79.78713°
Altitude
1,394.524 km
Speed
7.165 km/s
True Right ascension
15h 41m 19s
True Declination
0° 00' 00"
Sunlit
Object was in full shadow at epoch
Visualization orbit readout
Latitude
Unknown
Longitude
Unknown
Altitude
Unknown
Speed
Unknown
Apparent Right ascension
Unknown
Apparent Declination
Unknown
Sunlit
N/A
Visualization observer readout
Local Sidereal Time
22:20:41
Azimuth
Unknown
Elevation
Unknown
Doppler factor
Unknown
Orbital elements
Apogee altitude
1,408.814 km
Perigee altitude
1,379.795 km
Semi-major axis
7,772.441 km
Eccentricity
0.00187
Inclination
82.6043°
RAAN
235.3319°
Arg. of periapsis
69.2083°
True anomaly
290.90106°
Mean anomaly
291.1008°
Eccentric anomaly
291.00095°
Mean motion
3.16743 °/min
Orbital period
113.66 mins
BSTAR
0.00014215
Loading maneuver chart data...
Computing Atmospheric mass density...
Loading historical data...
Loading historical data...
Loading historical data...
Loading historical data...
Loading historical data...
Loading historical data...
Loading historical data...

Documentation

Showing up to 5 results
|